Showing default

BRO-15, 60553

Orbit data source: Space-Track

BRO-15, 60553 is a payload satellite owned by Unseen Labs (FR) in SSO that was launched on Fri, 16 Aug 2024 UTC via an FALCON 9 launch vehicle from the Air Force Western Test Range (AFWTR). Payload-class satellites include a variety of spacecraft equipped with specific instruments for various scientific and technological missions. These include communications satellites like Starlink; space stations such as the ISS; scientific satellites like the Hubble; Earth observation satellites from companies like Planet Labs, Umbra, and HawkEye 360; GPS; miniature CubeSats for education and research; and military/defense satellites.

Loading next visibility...
Identifier
60553, 2024-149CP
Orbit
SSO
Country
Flag of FRFR
Related business
Manufacturer
GOMSpace
Mission
Operational Commercial Sigint
Bus & Motor
CUBESAT 8U, Unknown motor
Mass
15 kg wet, ~15 kg dry
Launch date (UTC)
2024-08-16 (1 year ago)
Launch vehicle
FALCON 9
Launch site
Air Force Western Test Range (AFWTR)
Object type
Payload
Rocket body
Debris
Shape & HBR
Box, 0.2 m
Radar Cross Section
0.100 m², Medium (>0.1 m² and < 1m²)

Expand to show TLE details & history
Last TLE update: 7 hours ago

TLE from 7 hours ago
0 BRO-15
1 60553U 24149CP  25291.15429896  .00002203  00000-0  20421-3 0  9991
2 60553  97.7054   5.9071 0008458 167.8199 192.3228 14.95449257 63827
Epoch: 2025-10-18T03:42Z
TLE epoch observation values (Epoch: 2025-10-18T03:42:11.430Z)
Latitude
-0°
Longitude
-76.52991°
Altitude
589.779 km
Speed
7.562 km/s
True Right ascension
00h 23m 37s
True Declination
0° 00' 00"
Sunlit
Object was in full shadow at epoch
Visualization orbit readout
Latitude
Unknown
Longitude
Unknown
Altitude
Unknown
Speed
Unknown
Apparent Right ascension
Unknown
Apparent Declination
Unknown
Sunlit
N/A
Visualization observer readout
Local Sidereal Time
05:49:35
Azimuth
Unknown
Elevation
Unknown
Doppler factor
Unknown
Orbital elements
Apogee altitude
583.874 km
Perigee altitude
572.107 km
Semi-major axis
6,956.127 km
Eccentricity
0.00085
Inclination
97.7054°
RAAN
5.9071°
Arg. of periapsis
167.8199°
True anomaly
192.30214°
Mean anomaly
192.3228°
Eccentric anomaly
192.31247°
Mean motion
3.74104 °/min
Orbital period
96.23 mins
BSTAR
0.00020421
Loading maneuver chart data...
Computing Atmospheric mass density...
Loading historical data...
Loading historical data...
Loading historical data...
Loading historical data...
Loading historical data...
Loading historical data...
Loading historical data...

Documentation

Showing up to 5 results
|